sat.trackr.live / text

‹ back to catalog

STARLINK-36139

NORAD 66966 · 2025-288H

PAYLOAD ACTIVE UNKNOWN

§ Identity

Operator
Country
US
Launch date
2025-12-08
Launch site
AFETR
Launch vehicle
Mass (kg)
RCS (m²)

Purposes: comms

External: N2YO · Heavens-Above · Gunter

§ Orbital elements

Epoch: 2026-05-25T03:37:32.745216Z

Period
94.27 min
Inclination
42.9985°
Eccentricity
0.0001289
Mean motion
15.27560990 rev/d
Perigee alt
482.2 km
Apogee alt
484.0 km
Semi-major
6,861.2 km
B*
7.1986e-4
RAAN
311.4272°
Arg perigee
270.9217°
Mean anomaly
89.1487°
Rev number
2,698

§ Raw data

STARLINK-361391 66966U 25288H   26145.15107344  .00019588  00000+0  71986-3 0  99952 66966  42.9985 311.4272 0001289 270.9217  89.1487 15.27560990 26986

JSON: /api/v1/satellites/66966 · /tle

For live sub-satellite position, see the globe view (requires WebGL).

§ Visibility from observer

Set your observer location to see the next 7 days of passes ≥ 10°. The values pass through the URL so the page stays shareable.

No JS? Fill the form by hand. The geolocation button needs JavaScript.